Time,TemperatureF,DewpointF,PressureIn,WindDirection,WindDirectionDegrees,WindSpeedMPH,WindSpeedGustMPH,Humidity,HourlyPrecipIn,Conditions,Clouds,dailyrainin,SoftwareType,DateUTC
2013-04-28 00:00:00,68.4,32.0,30.81,WSW,251,4.0,4.0,10,0.00,PR,BKN,0.00,Misterhouse,2013-04-28 07:00:00,
2013-04-28 00:05:00,68.4,32.0,30.81,WSW,256,0.0,0.0,10,0.00,PR,BKN,0.00,Misterhouse,2013-04-28 07:05:00,
2013-04-28 00:10:00,67.8,32.0,30.78,SSW,199,0.0,0.0,10,0.00,PR,BKN,0.00,Misterhouse,2013-04-28 07:10:00,
2013-04-28 00:15:00,67.8,32.0,30.78,SW,223,0.0,5.0,10,0.00,PR,BKN,0.00,Misterhouse,2013-04-28 07:15:00,
2013-04-28 00:20:00,68.0,32.0,30.78,SSW,207,3.0,4.0,10,0.00,PR,BKN,0.00,Misterhouse,2013-04-28 07:20:00,
2013-04-28 00:25:00,68.9,32.0,30.78,SW,220,5.0,5.0,10,0.00,PR,BKN,0.00,Misterhouse,2013-04-28 07:25:00,
2013-04-28 00:30:00,68.9,32.0,30.78,West,266,3.0,3.0,10,0.00,PR,BKN,0.00,Misterhouse,2013-04-28 07:30:00,
2013-04-28 00:35:00,68.7,32.0,30.78,West,262,2.0,3.0,10,0.00,PR,BKN,0.00,Misterhouse,2013-04-28 07:35:00,
2013-04-28 00:40:00,68.5,32.0,30.78,West,262,0.0,0.0,10,0.00,PR,BKN,0.00,Misterhouse,2013-04-28 07:40:00,
2013-04-28 00:45:00,68.9,32.0,30.78,West,268,7.0,7.0,10,0.00,PR,BKN,0.00,Misterhouse,2013-04-28 07:45:00,
2013-04-28 00:50:00,69.6,32.0,30.78,WSW,247,7.0,8.0,10,0.00,PR,BKN,0.00,Misterhouse,2013-04-28 07:50:00,
2013-04-28 00:55:00,69.8,32.0,30.78,SW,217,6.0,6.0,9,0.00,PR,BKN,0.00,Misterhouse,2013-04-28 07:55:00,
2013-04-28 01:00:00,69.6,32.0,30.78,SW,217,6.0,6.0,10,0.00,PR,BKN,0.00,Misterhouse,2013-04-28 08:00:00,
2013-04-28 01:05:00,69.6,32.0,30.78,West,259,5.0,5.0,10,0.00,PR,BKN,0.00,Misterhouse,2013-04-28 08:05:00,
2013-04-28 01:10:00,69.8,32.0,30.78,WSW,252,9.0,9.0,9,0.00,PR,BKN,0.00,Misterhouse,2013-04-28 08:10:00,
2013-04-28 01:15:00,69.6,32.0,30.78,SW,222,4.0,4.0,10,0.00,PR,BKN,0.00,Misterhouse,2013-04-28 08:15:00,
2013-04-28 01:20:00,69.6,32.0,30.78,WSW,238,4.0,5.0,10,0.00,PR,BKN,0.00,Misterhouse,2013-04-28 08:20:00,
2013-04-28 01:25:00,69.1,32.0,30.78,WSW,254,6.0,6.0,10,0.00,PR,BKN,0.00,Misterhouse,2013-04-28 08:25:00,
2013-04-28 01:30:00,68.9,32.0,30.78,SW,216,4.0,4.0,10,0.00,PR,BKN,0.00,Misterhouse,2013-04-28 08:30:00,
2013-04-28 01:35:00,69.1,32.0,30.78,SW,230,6.0,6.0,10,0.00,PR,BKN,0.00,Misterhouse,2013-04-28 08:35:00,
2013-04-28 01:40:00,68.9,32.0,30.78,WSW,244,4.0,4.0,10,0.00,PR,BKN,0.00,Misterhouse,2013-04-28 08:40:00,
2013-04-28 01:45:00,68.9,32.0,30.78,SSW,210,3.0,3.0,10,0.00,PR,BKN,0.00,Misterhouse,2013-04-28 08:45:00,
2013-04-28 01:50:00,68.7,32.0,30.78,South,188,5.0,5.0,10,0.00,PR,BKN,0.00,Misterhouse,2013-04-28 08:50:00,
2013-04-28 01:55:00,68.9,32.0,30.78,SSE,153,6.0,6.0,10,0.00,PR,BKN,0.00,Misterhouse,2013-04-28 08:55:00,
2013-04-28 02:00:00,68.9,32.0,30.78,SSW,203,5.0,5.0,10,0.00,PR,BKN,0.00,Misterhouse,2013-04-28 09:00:00,
2013-04-28 02:05:00,68.7,32.0,30.78,SW,223,6.0,8.0,10,0.00,PR,BKN,0.00,Misterhouse,2013-04-28 09:05:00,
2013-04-28 02:10:00,68.9,32.0,30.78,South,190,4.0,6.0,10,0.00,PR,BKN,0.00,Misterhouse,2013-04-28 09:10:00,
2013-04-28 02:15:00,68.7,32.0,30.78,SW,216,3.0,4.0,10,0.00,PR,BKN,0.00,Misterhouse,2013-04-28 09:15:00,
2013-04-28 02:20:00,68.5,32.0,30.78,SSW,204,5.0,5.0,10,0.00,PR,BKN,0.00,Misterhouse,2013-04-28 09:20:00,
2013-04-28 02:25:00,68.5,32.0,30.78,SSW,213,4.0,5.0,10,0.00,PR,BKN,0.00,Misterhouse,2013-04-28 09:25:00,
2013-04-28 02:30:00,68.7,32.0,30.78,SSW,209,4.0,8.0,10,0.00,PR,BKN,0.00,Misterhouse,2013-04-28 09:30:00,
2013-04-28 02:35:00,68.7,32.0,30.78,SSW,209,7.0,8.0,10,0.00,PR,BKN,0.00,Misterhouse,2013-04-28 09:35:00,
2013-04-28 02:40:00,68.9,32.0,30.78,SW,219,4.0,6.0,10,0.00,PR,BKN,0.00,Misterhouse,2013-04-28 09:40:00,
2013-04-28 02:45:00,68.9,32.0,30.78,SSW,200,2.0,4.0,10,0.00,PR,BKN,0.00,Misterhouse,2013-04-28 09:45:00,
2013-04-28 02:50:00,68.9,32.0,30.78,SW,229,5.0,5.0,10,0.00,PR,BKN,0.00,Misterhouse,2013-04-28 09:50:00,
2013-04-28 02:55:00,68.7,32.0,30.78,SSW,206,3.0,0.0,10,0.00,PR,BKN,0.00,Misterhouse,2013-04-28 09:55:00,
2013-04-28 03:00:00,68.2,32.0,30.75,South,183,4.0,4.0,10,0.00,RA,OVC,0.00,Misterhouse,2013-04-28 10:00:00,
2013-04-28 03:05:00,67.8,32.0,30.75,SSW,207,0.0,0.0,10,0.00,RA,OVC,0.00,Misterhouse,2013-04-28 10:05:00,
2013-04-28 03:15:00,67.1,32.0,30.78,SSW,207,4.0,4.0,10,0.00,RA,OVC,0.00,Misterhouse,2013-04-28 10:15:00,
2013-04-28 03:20:00,67.3,32.0,30.78,SSW,203,4.0,4.0,10,0.00,RA,OVC,0.00,Misterhouse,2013-04-28 10:20:00,
2013-04-28 03:30:00,66.9,32.0,30.75,WNW,287,0.0,0.0,10,0.00,RA,OVC,0.00,Misterhouse,2013-04-28 10:30:00,
2013-04-28 03:35:00,66.7,32.0,30.75,WNW,286,0.0,0.0,10,0.00,RA,OVC,0.00,Misterhouse,2013-04-28 10:35:00,
2013-04-28 03:50:00,66.2,32.0,30.75,WNW,285,0.0,0.0,10,0.00,RA,OVC,0.00,Misterhouse,2013-04-28 10:50:00,
2013-04-28 03:55:00,66.7,32.0,30.75,SSW,212,0.0,0.0,10,0.00,RA,OVC,0.00,Misterhouse,2013-04-28 10:55:00,
2013-04-28 04:10:00,67.1,32.0,30.78,SSW,208,0.0,0.0,10,0.00,RA,OVC,0.00,Misterhouse,2013-04-28 11:10:00,
2013-04-28 04:20:00,66.4,32.0,30.75,South,186,0.0,0.0,10,0.00,RA,OVC,0.00,Misterhouse,2013-04-28 11:20:00,
2013-04-28 04:25:00,67.5,32.0,30.75,WNW,286,0.0,0.0,10,0.00,RA,OVC,0.00,Misterhouse,2013-04-28 11:25:00,
2013-04-28 04:40:00,66.6,32.0,30.75,WNW,286,0.0,0.0,10,0.00,RA,OVC,0.00,Misterhouse,2013-04-28 11:40:00,
2013-04-28 04:45:00,66.2,32.0,30.75,WNW,286,0.0,0.0,10,0.00,RA,OVC,0.00,Misterhouse,2013-04-28 11:45:00,
2013-04-28 04:55:00,65.8,32.0,30.75,WSW,240,0.0,0.0,10,0.00,RA,OVC,0.00,Misterhouse,2013-04-28 11:55:00,
2013-04-28 05:00:00,66.6,32.0,30.75,WSW,250,0.0,0.0,10,0.00,RA,OVC,0.00,Misterhouse,2013-04-28 12:00:00,
2013-04-28 05:05:00,66.4,32.0,30.75,SSW,212,0.0,0.0,10,0.00,RA,OVC,0.00,Misterhouse,2013-04-28 12:05:00,
2013-04-28 05:10:00,66.6,32.0,30.75,South,185,3.0,4.0,10,0.00,RA,OVC,0.00,Misterhouse,2013-04-28 12:10:00,
2013-04-28 05:15:00,66.6,32.0,30.75,South,186,0.0,0.0,10,0.00,RA,OVC,0.00,Misterhouse,2013-04-28 12:15:00,
2013-04-28 05:25:00,66.0,32.0,30.75,South,186,0.0,0.0,10,0.00,RA,OVC,0.00,Misterhouse,2013-04-28 12:25:00,
2013-04-28 05:30:00,66.0,32.0,30.75,South,186,0.0,0.0,10,0.00,RA,OVC,0.00,Misterhouse,2013-04-28 12:30:00,
2013-04-28 05:35:00,65.8,32.0,30.75,South,186,0.0,0.0,10,0.00,RA,OVC,0.00,Misterhouse,2013-04-28 12:35:00,
2013-04-28 05:50:00,65.5,32.0,30.75,WSW,245,0.0,5.0,10,0.00,RA,OVC,0.00,Misterhouse,2013-04-28 12:50:00,
2013-04-28 05:55:00,64.9,32.0,30.75,WSW,240,0.0,0.0,10,0.00,RA,OVC,0.00,Misterhouse,2013-04-28 12:55:00,
2013-04-28 06:05:00,65.5,32.0,30.75,WSW,240,0.0,0.0,10,0.00,RA,OVC,0.00,Misterhouse,2013-04-28 13:05:00,
2013-04-28 06:15:00,65.1,32.0,30.75,WSW,240,0.0,0.0,10,0.00,RA,OVC,0.00,Misterhouse,2013-04-28 13:15:00,
2013-04-28 06:20:00,65.1,32.0,30.75,WSW,240,0.0,0.0,10,0.00,RA,OVC,0.00,Misterhouse,2013-04-28 13:20:00,
2013-04-28 06:35:00,65.1,32.0,30.75,WSW,240,0.0,0.0,10,0.00,RA,OVC,0.00,Misterhouse,2013-04-28 13:35:00,
2013-04-28 06:40:00,64.9,32.0,30.78,WSW,240,0.0,0.0,10,0.00,RA,OVC,0.00,Misterhouse,2013-04-28 13:40:00,
2013-04-28 06:45:00,64.9,32.0,30.78,WSW,240,0.0,0.0,10,0.00,RA,OVC,0.00,Misterhouse,2013-04-28 13:45:00,
2013-04-28 06:50:00,64.9,32.0,30.78,WSW,240,0.0,0.0,10,0.00,RA,OVC,0.00,Misterhouse,2013-04-28 13:50:00,
2013-04-28 07:00:00,65.1,32.0,30.75,WSW,240,0.0,0.0,10,0.00,RA,OVC,0.00,Misterhouse,2013-04-28 14:00:00,
2013-04-28 07:05:00,64.9,32.0,30.75,WSW,240,0.0,0.0,10,0.00,RA,OVC,0.00,Misterhouse,2013-04-28 14:05:00,
2013-04-28 07:10:00,64.9,32.0,30.75,WSW,240,0.0,0.0,10,0.00,RA,OVC,0.00,Misterhouse,2013-04-28 14:10:00,
2013-04-28 07:15:00,64.8,32.0,30.78,WSW,240,0.0,0.0,10,0.00,RA,OVC,0.00,Misterhouse,2013-04-28 14:15:00,
2013-04-28 07:20:00,64.9,32.0,30.78,WSW,240,0.0,0.0,10,0.00,RA,OVC,0.00,Misterhouse,2013-04-28 14:20:00,
2013-04-28 07:25:00,65.3,32.0,30.78,WSW,240,0.0,0.0,10,0.00,RA,OVC,0.00,Misterhouse,2013-04-28 14:25:00,
2013-04-28 07:30:00,65.5,32.0,30.78,WSW,240,0.0,0.0,10,0.00,RA,OVC,0.00,Misterhouse,2013-04-28 14:30:00,
2013-04-28 07:35:00,65.7,32.0,30.78,WSW,258,0.0,0.0,10,0.00,RA,OVC,0.00,Misterhouse,2013-04-28 14:35:00,
2013-04-28 07:40:00,66.4,32.0,30.78,WSW,258,0.0,0.0,10,0.00,RA,OVC,0.00,Misterhouse,2013-04-28 14:40:00,
2013-04-28 07:45:00,67.5,32.0,30.78,WSW,258,0.0,0.0,10,0.00,RA,OVC,0.00,Misterhouse,2013-04-28 14:45:00,
2013-04-28 07:50:00,68.2,32.0,30.78,WSW,258,0.0,0.0,10,0.00,RA,OVC,0.00,Misterhouse,2013-04-28 14:50:00,
2013-04-28 07:55:00,69.1,32.0,30.78,WNW,285,5.0,5.0,10,0.00,RA,OVC,0.00,Misterhouse,2013-04-28 14:55:00,
2013-04-28 08:00:00,69.8,32.0,30.78,WNW,284,0.0,0.0,9,0.00,RA,OVC,0.00,Misterhouse,2013-04-28 15:00:00,
2013-04-28 08:10:00,71.2,32.0,30.78,WSW,258,4.0,5.0,9,0.00,RA,OVC,0.00,Misterhouse,2013-04-28 15:10:00,
2013-04-28 08:15:00,71.8,32.0,30.78,WNW,301,4.0,6.0,9,0.00,RA,OVC,0.00,Misterhouse,2013-04-28 15:15:00,
2013-04-28 08:20:00,72.3,32.0,30.78,NW,308,4.0,6.0,9,0.00,RA,OVC,0.00,Misterhouse,2013-04-28 15:20:00,
2013-04-28 08:25:00,72.9,32.0,30.78,WNW,299,5.0,8.0,9,0.00,RA,OVC,0.00,Misterhouse,2013-04-28 15:25:00,
2013-04-28 08:30:00,73.0,32.0,30.78,WNW,292,3.0,3.0,9,0.00,RA,OVC,0.00,Misterhouse,2013-04-28 15:30:00,
2013-04-28 08:35:00,73.6,32.0,30.78,NW,321,4.0,4.0,8,0.00,RA,OVC,0.00,Misterhouse,2013-04-28 15:35:00,
2013-04-28 08:40:00,74.1,32.0,30.78,WNW,287,3.0,3.0,8,0.00,RA,OVC,0.00,Misterhouse,2013-04-28 15:40:00,
2013-04-28 08:50:00,75.0,32.0,30.78,West,263,0.0,0.0,8,0.00,RA,OVC,0.00,Misterhouse,2013-04-28 15:50:00,
2013-04-28 08:55:00,75.6,32.0,30.78,West,262,0.0,0.0,8,0.00,RA,OVC,0.00,Misterhouse,2013-04-28 15:55:00,
2013-04-28 09:00:00,76.5,32.0,30.78,West,262,0.0,0.0,8,0.00,RA,OVC,0.00,Misterhouse,2013-04-28 16:00:00,
2013-04-28 09:05:00,77.0,32.0,30.78,SSE,161,0.0,0.0,8,0.00,RA,OVC,0.00,Misterhouse,2013-04-28 16:05:00,
2013-04-28 09:10:00,77.0,32.0,30.75,SE,137,0.0,0.0,8,0.00,RA,OVC,0.00,Misterhouse,2013-04-28 16:10:00,
2013-04-28 09:15:00,76.8,32.0,30.75,SE,143,0.0,0.0,8,0.00,RA,OVC,0.00,Misterhouse,2013-04-28 16:15:00,
2013-04-28 09:20:00,77.2,32.0,30.75,South,180,0.0,0.0,10,0.00,RA,OVC,0.00,Misterhouse,2013-04-28 16:20:00,
2013-04-28 09:25:00,77.9,32.0,30.75,ENE,68,0.0,0.0,10,0.00,RA,OVC,0.00,Misterhouse,2013-04-28 16:25:00,
2013-04-28 09:30:00,78.8,32.0,30.75,NNE,14,3.0,4.0,10,0.00,RA,OVC,0.00,Misterhouse,2013-04-28 16:30:00,
2013-04-28 09:35:00,79.0,32.0,30.75,NNW,338,2.0,3.0,10,0.00,RA,OVC,0.00,Misterhouse,2013-04-28 16:35:00,
2013-04-28 09:40:00,79.3,32.0,30.75,NW,307,0.0,3.0,10,0.00,RA,OVC,0.00,Misterhouse,2013-04-28 16:40:00,
2013-04-28 09:45:00,79.5,32.0,30.75,WNW,290,4.0,6.0,10,0.00,RA,OVC,0.00,Misterhouse,2013-04-28 16:45:00,
2013-04-28 09:50:00,79.7,32.0,30.75,NW,316,4.0,5.0,10,0.00,RA,OVC,0.00,Misterhouse,2013-04-28 16:50:00,
2013-04-28 09:55:00,79.9,32.0,30.75,NW,310,5.0,5.0,10,0.00,RA,OVC,0.00,Misterhouse,2013-04-28 16:55:00,
2013-04-28 10:00:00,80.2,32.0,30.75,NW,304,6.0,8.0,10,0.00,RA,OVC,0.00,Misterhouse,2013-04-28 17:00:00,
2013-04-28 10:05:00,80.4,32.0,30.75,NNW,335,4.0,0.0,10,0.00,RA,OVC,0.00,Misterhouse,2013-04-28 17:05:00,
2013-04-28 10:10:00,81.1,32.0,30.75,West,267,4.0,4.0,9,0.00,RA,OVC,0.00,Misterhouse,2013-04-28 17:10:00,
2013-04-28 10:20:00,81.1,32.0,30.75,NNW,330,4.0,4.0,9,0.00,RA,OVC,0.00,Misterhouse,2013-04-28 17:20:00,
2013-04-28 10:25:00,81.7,32.0,30.75,NW,320,5.0,6.0,9,0.00,RA,OVC,0.00,Misterhouse,2013-04-28 17:25:00,
2013-04-28 10:30:00,82.6,32.0,30.75,NW,323,4.0,5.0,9,0.00,RA,OVC,0.00,Misterhouse,2013-04-28 17:30:00,
2013-04-28 10:35:00,82.9,32.0,30.75,NNW,333,5.0,5.0,9,0.00,RA,OVC,0.00,Misterhouse,2013-04-28 17:35:00,
2013-04-28 10:40:00,82.8,32.0,30.78,NW,311,4.0,0.0,9,0.00,RA,OVC,0.00,Misterhouse,2013-04-28 17:40:00,
2013-04-28 10:45:00,82.4,32.0,30.78,NW,314,0.0,0.0,9,0.00,RA,OVC,0.00,Misterhouse,2013-04-28 17:45:00,
2013-04-28 10:50:00,83.3,32.0,30.78,NE,53,4.0,0.0,9,0.00,RA,OVC,0.00,Misterhouse,2013-04-28 17:50:00,
2013-04-28 10:55:00,84.2,32.0,30.75,West,271,7.0,8.0,8,0.00,RA,OVC,0.00,Misterhouse,2013-04-28 17:55:00,
2013-04-28 11:00:00,83.1,32.0,30.75,West,261,4.0,4.0,9,0.00,RA,OVC,0.00,Misterhouse,2013-04-28 18:00:00,
2013-04-28 11:10:00,83.5,32.0,30.75,NW,326,3.0,4.0,9,0.00,RA,OVC,0.00,Misterhouse,2013-04-28 18:10:00,
2013-04-28 11:15:00,84.6,32.0,30.75,NNW,338,7.0,10.0,8,0.00,RA,OVC,0.00,Misterhouse,2013-04-28 18:15:00,
2013-04-28 11:20:00,84.6,32.0,30.75,NW,316,10.0,10.0,8,0.00,RA,OVC,0.00,Misterhouse,2013-04-28 18:20:00,
2013-04-28 11:25:00,84.4,32.0,30.75,WNW,294,6.0,8.0,8,0.00,RA,OVC,0.00,Misterhouse,2013-04-28 18:25:00,
2013-04-28 11:30:00,84.2,32.0,30.75,NNW,343,0.0,0.0,8,0.00,RA,OVC,0.00,Misterhouse,2013-04-28 18:30:00,
2013-04-28 11:35:00,84.9,32.0,30.75,West,263,4.0,4.0,8,0.00,RA,OVC,0.00,Misterhouse,2013-04-28 18:35:00,
2013-04-28 11:40:00,85.5,32.0,30.75,WSW,243,0.0,0.0,8,0.00,RA,OVC,0.00,Misterhouse,2013-04-28 18:40:00,
2013-04-28 11:45:00,85.5,32.0,30.75,WNW,290,4.0,4.0,8,0.00,RA,OVC,0.00,Misterhouse,2013-04-28 18:45:00,
2013-04-28 11:50:00,86.4,32.0,30.75,NW,306,6.0,6.0,8,0.00,RA,OVC,0.00,Misterhouse,2013-04-28 18:50:00,
2013-04-28 11:55:00,86.4,32.0,30.75,NW,321,5.0,5.0,8,0.00,RA,OVC,0.00,Misterhouse,2013-04-28 18:55:00,
2013-04-28 12:00:00,86.7,32.0,30.75,NW,304,5.0,6.0,8,0.00,RA,OVC,0.00,Misterhouse,2013-04-28 19:00:00,
2013-04-28 12:10:00,87.4,32.0,30.75,NW,318,7.0,7.0,8,0.00,RA,OVC,0.00,Misterhouse,2013-04-28 19:10:00,
2013-04-28 12:15:00,87.6,32.0,30.75,NW,319,8.0,8.0,8,0.00,RA,OVC,0.00,Misterhouse,2013-04-28 19:15:00,
2013-04-28 12:20:00,87.4,32.0,30.75,NW,322,5.0,6.0,8,0.00,RA,OVC,0.00,Misterhouse,2013-04-28 19:20:00,
2013-04-28 12:25:00,87.6,32.0,30.75,NW,314,3.0,6.0,8,0.00,RA,OVC,0.00,Misterhouse,2013-04-28 19:25:00,
2013-04-28 12:30:00,87.8,32.0,30.75,WSW,257,8.0,9.0,8,0.00,RA,OVC,0.00,Misterhouse,2013-04-28 19:30:00,
2013-04-28 12:35:00,88.2,32.0,30.75,North,0,7.0,8.0,8,0.00,RA,OVC,0.00,Misterhouse,2013-04-28 19:35:00,
2013-04-28 12:40:00,88.5,32.0,30.75,NNW,338,5.0,6.0,8,0.00,RA,OVC,0.00,Misterhouse,2013-04-28 19:40:00,
2013-04-28 12:45:00,88.0,32.0,30.72,WNW,289,4.0,4.0,8,0.00,RA,OVC,0.00,Misterhouse,2013-04-28 19:45:00,
2013-04-28 12:50:00,88.2,32.0,30.72,NW,306,0.0,5.0,8,0.00,RA,OVC,0.00,Misterhouse,2013-04-28 19:50:00,
2013-04-28 12:55:00,89.1,32.0,30.72,NW,317,4.0,4.0,8,0.00,RA,OVC,0.00,Misterhouse,2013-04-28 19:55:00,
2013-04-28 13:00:00,89.8,32.0,30.72,NW,312,8.0,9.0,7,0.00,RA,OVC,0.00,Misterhouse,2013-04-28 20:00:00,
2013-04-28 13:10:00,90.1,32.0,30.72,SSE,151,3.0,3.0,7,0.00,RA,OVC,0.00,Misterhouse,2013-04-28 20:10:00,
2013-04-28 13:15:00,90.3,32.0,30.72,North,0,3.0,3.0,7,0.00,RA,OVC,0.00,Misterhouse,2013-04-28 20:15:00,
2013-04-28 13:20:00,90.1,32.0,30.72,NW,319,4.0,4.0,7,0.00,RA,OVC,0.00,Misterhouse,2013-04-28 20:20:00,
2013-04-28 13:25:00,90.3,32.0,30.72,NW,312,7.0,7.0,7,0.00,RA,OVC,0.00,Misterhouse,2013-04-28 20:25:00,
2013-04-28 13:30:00,91.0,32.0,30.72,NNW,348,5.0,5.0,7,0.00,RA,OVC,0.00,Misterhouse,2013-04-28 20:30:00,
2013-04-28 13:35:00,91.0,32.0,30.72,West,278,6.0,6.0,7,0.00,RA,OVC,0.00,Misterhouse,2013-04-28 20:35:00,
2013-04-28 13:40:00,90.3,32.0,30.72,NW,306,5.0,5.0,7,0.00,RA,OVC,0.00,Misterhouse,2013-04-28 20:40:00,
2013-04-28 13:45:00,90.1,32.0,30.72,WNW,302,3.0,3.0,7,0.00,RA,OVC,0.00,Misterhouse,2013-04-28 20:45:00,
2013-04-28 13:50:00,89.8,32.0,30.72,WSW,248,3.0,7.0,7,0.00,RA,OVC,0.00,Misterhouse,2013-04-28 20:50:00,
2013-04-28 13:55:00,87.6,32.0,30.72,South,172,8.0,8.0,8,0.00,RA,OVC,0.00,Misterhouse,2013-04-28 20:55:00,
2013-04-28 14:00:00,86.9,32.0,30.72,SSW,195,10.0,13.0,8,0.00,RA,OVC,0.00,Misterhouse,2013-04-28 21:00:00,
2013-04-28 14:05:00,86.2,32.0,30.72,South,173,9.0,9.0,8,0.00,RA,OVC,0.00,Misterhouse,2013-04-28 21:05:00,
2013-04-28 14:10:00,86.0,32.0,30.72,SW,234,10.0,10.0,8,0.00,RA,OVC,0.00,Misterhouse,2013-04-28 21:10:00,
2013-04-28 14:15:00,85.8,32.0,30.69,SSW,211,11.0,11.0,8,0.00,RA,OVC,0.00,Misterhouse,2013-04-28 21:15:00,
2013-04-28 14:20:00,85.6,32.0,30.69,South,172,10.0,12.0,8,0.00,RA,OVC,0.00,Misterhouse,2013-04-28 21:20:00,
2013-04-28 14:25:00,86.4,32.0,30.69,South,177,10.0,10.0,8,0.00,RA,OVC,0.00,Misterhouse,2013-04-28 21:25:00,
2013-04-28 14:30:00,86.4,32.0,30.69,South,176,11.0,11.0,8,0.00,RA,OVC,0.00,Misterhouse,2013-04-28 21:30:00,
2013-04-28 14:35:00,86.5,32.0,30.69,South,170,11.0,11.0,8,0.00,RA,OVC,0.00,Misterhouse,2013-04-28 21:35:00,
2013-04-28 14:40:00,85.8,32.0,30.69,WSW,245,11.0,11.0,8,0.00,RA,OVC,0.00,Misterhouse,2013-04-28 21:40:00,
2013-04-28 14:45:00,86.0,32.0,30.69,SSW,209,7.0,11.0,8,0.00,RA,OVC,0.00,Misterhouse,2013-04-28 21:45:00,
2013-04-28 14:50:00,86.2,32.0,30.69,SSW,203,8.0,8.0,8,0.00,RA,OVC,0.00,Misterhouse,2013-04-28 21:50:00,
2013-04-28 14:55:00,85.8,32.0,30.69,SSW,213,10.0,10.0,8,0.00,RA,OVC,0.00,Misterhouse,2013-04-28 21:55:00,
2013-04-28 15:00:00,86.4,32.0,30.69,SSW,213,9.0,9.0,8,0.00,RA,OVC,0.00,Misterhouse,2013-04-28 22:00:00,
2013-04-28 15:10:00,84.9,32.0,30.69,SW,215,7.0,7.0,8,0.00,RA,OVC,0.00,Misterhouse,2013-04-28 22:10:00,
2013-04-28 15:15:00,85.3,32.0,30.69,South,180,8.0,8.0,8,0.00,RA,OVC,0.00,Misterhouse,2013-04-28 22:15:00,
2013-04-28 15:20:00,85.6,32.0,30.69,South,185,12.0,18.0,8,0.00,RA,OVC,0.00,Misterhouse,2013-04-28 22:20:00,
2013-04-28 15:25:00,85.3,32.0,30.69,SSW,204,10.0,10.0,8,0.00,RA,OVC,0.00,Misterhouse,2013-04-28 22:25:00,
2013-04-28 15:30:00,85.1,32.0,30.69,South,171,11.0,11.0,8,0.00,RA,OVC,0.00,Misterhouse,2013-04-28 22:30:00,
2013-04-28 15:35:00,84.7,32.0,30.69,SW,222,11.0,11.0,8,0.00,RA,OVC,0.00,Misterhouse,2013-04-28 22:35:00,
2013-04-28 15:40:00,84.6,32.0,30.69,South,183,12.0,14.0,8,0.00,RA,OVC,0.00,Misterhouse,2013-04-28 22:40:00,
2013-04-28 15:45:00,84.4,32.0,30.69,South,183,12.0,15.0,8,0.00,RA,OVC,0.00,Misterhouse,2013-04-28 22:45:00,
2013-04-28 15:50:00,84.9,32.0,30.69,SSW,212,12.0,12.0,8,0.00,RA,OVC,0.00,Misterhouse,2013-04-28 22:50:00,
2013-04-28 15:55:00,84.0,32.0,30.69,South,184,8.0,9.0,9,0.00,RA,OVC,0.00,Misterhouse,2013-04-28 22:55:00,
2013-04-28 16:00:00,84.2,32.0,30.69,SW,223,11.0,12.0,8,0.00,RA,OVC,0.00,Misterhouse,2013-04-28 23:00:00,
2013-04-28 16:05:00,84.4,32.0,30.69,West,274,9.0,9.0,8,0.00,RA,OVC,0.00,Misterhouse,2013-04-28 23:05:00,
2013-04-28 16:10:00,84.0,32.0,30.69,WSW,247,10.0,10.0,9,0.00,RA,OVC,0.00,Misterhouse,2013-04-28 23:10:00,
2013-04-28 16:15:00,83.8,32.0,30.69,SW,214,8.0,11.0,9,0.00,RA,OVC,0.00,Misterhouse,2013-04-28 23:15:00,
2013-04-28 16:20:00,83.8,32.0,30.69,South,186,9.0,11.0,9,0.00,RA,OVC,0.00,Misterhouse,2013-04-28 23:20:00,
2013-04-28 16:25:00,84.7,32.0,30.69,SW,214,9.0,11.0,8,0.00,RA,OVC,0.00,Misterhouse,2013-04-28 23:25:00,
2013-04-28 16:30:00,84.2,32.0,30.69,WSW,240,10.0,10.0,8,0.00,RA,OVC,0.00,Misterhouse,2013-04-28 23:30:00,
2013-04-28 16:35:00,83.7,32.0,30.69,SSW,200,10.0,10.0,9,0.00,RA,OVC,0.00,Misterhouse,2013-04-28 23:35:00,
2013-04-28 16:40:00,83.5,32.0,30.69,SSW,196,9.0,10.0,9,0.00,RA,OVC,0.00,Misterhouse,2013-04-28 23:40:00,
2013-04-28 16:45:00,83.5,32.0,30.66,SW,227,8.0,11.0,9,0.00,RA,OVC,0.00,Misterhouse,2013-04-28 23:45:00,
2013-04-28 16:50:00,83.1,32.0,30.66,SSW,192,10.0,10.0,9,0.00,RA,OVC,0.00,Misterhouse,2013-04-28 23:50:00,
2013-04-28 16:55:00,83.1,32.0,30.66,SW,224,8.0,8.0,9,0.00,RA,OVC,0.00,Misterhouse,2013-04-28 23:55:00,
2013-04-28 17:00:00,83.1,32.0,30.66,SSW,211,10.0,15.0,9,0.00,RA,OVC,0.00,Misterhouse,2013-04-29 00:00:00,
2013-04-28 17:10:00,83.7,32.0,30.66,West,271,8.0,8.0,9,0.00,RA,OVC,0.00,Misterhouse,2013-04-29 00:10:00,
2013-04-28 17:15:00,83.7,32.0,30.66,South,187,9.0,9.0,9,0.00,RA,OVC,0.00,Misterhouse,2013-04-29 00:15:00,
2013-04-28 17:20:00,82.8,32.0,30.66,SSW,210,9.0,9.0,9,0.00,RA,OVC,0.00,Misterhouse,2013-04-29 00:20:00,
2013-04-28 17:25:00,82.9,32.0,30.66,SSW,200,5.0,8.0,9,0.00,RA,OVC,0.00,Misterhouse,2013-04-29 00:25:00,
2013-04-28 17:30:00,82.4,32.0,30.66,WSW,253,8.0,10.0,9,0.00,RA,OVC,0.00,Misterhouse,2013-04-29 00:30:00,
2013-04-28 17:35:00,82.6,32.0,30.66,SSW,204,8.0,9.0,9,0.00,RA,OVC,0.00,Misterhouse,2013-04-29 00:35:00,
2013-04-28 17:40:00,82.0,32.0,30.66,SSW,199,11.0,12.0,9,0.00,RA,OVC,0.00,Misterhouse,2013-04-29 00:40:00,
2013-04-28 17:45:00,81.9,32.0,30.66,SW,236,10.0,10.0,9,0.00,RA,OVC,0.00,Misterhouse,2013-04-29 00:45:00,
2013-04-28 17:50:00,81.3,32.0,30.66,SE,140,11.0,11.0,9,0.00,RA,OVC,0.00,Misterhouse,2013-04-29 00:50:00,
2013-04-28 17:55:00,81.0,32.0,30.66,SSW,205,9.0,11.0,9,0.00,RA,OVC,0.00,Misterhouse,2013-04-29 00:55:00,
2013-04-28 18:00:00,81.0,32.0,30.66,SW,228,11.0,13.0,9,0.00,RA,OVC,0.00,Misterhouse,2013-04-29 01:00:00,
2013-04-28 18:10:00,79.9,32.0,30.66,South,182,11.0,11.0,10,0.00,RA,OVC,0.00,Misterhouse,2013-04-29 01:10:00,
2013-04-28 18:15:00,79.7,32.0,30.66,South,186,9.0,10.0,10,0.00,RA,OVC,0.00,Misterhouse,2013-04-29 01:15:00,
2013-04-28 18:20:00,79.5,32.0,30.66,South,182,9.0,9.0,10,0.00,RA,OVC,0.00,Misterhouse,2013-04-29 01:20:00,
2013-04-28 18:25:00,79.2,32.0,30.66,SE,140,8.0,12.0,10,0.00,RA,OVC,0.00,Misterhouse,2013-04-29 01:25:00,
2013-04-28 18:30:00,79.0,32.0,30.66,SW,232,9.0,9.0,10,0.00,RA,OVC,0.00,Misterhouse,2013-04-29 01:30:00,
2013-04-28 18:35:00,78.6,32.0,30.66,South,188,9.0,9.0,10,0.00,RA,OVC,0.00,Misterhouse,2013-04-29 01:35:00,
2013-04-28 18:40:00,78.1,32.0,30.66,SW,218,8.0,9.0,10,0.00,RA,OVC,0.00,Misterhouse,2013-04-29 01:40:00,
2013-04-28 18:45:00,77.7,32.0,30.66,SW,233,9.0,11.0,8,0.00,RA,OVC,0.00,Misterhouse,2013-04-29 01:45:00,
2013-04-28 18:50:00,77.5,32.0,30.66,SSW,197,8.0,10.0,8,0.00,RA,OVC,0.00,Misterhouse,2013-04-29 01:50:00,
2013-04-28 18:55:00,77.2,32.0,30.66,South,180,9.0,9.0,8,0.00,RA,OVC,0.00,Misterhouse,2013-04-29 01:55:00,
2013-04-28 19:00:00,77.0,32.0,30.66,SSE,167,8.0,8.0,8,0.00,RA,OVC,0.00,Misterhouse,2013-04-29 02:00:00,
2013-04-28 19:10:00,76.1,32.0,30.66,SSW,196,7.0,7.0,8,0.00,RA,OVC,0.00,Misterhouse,2013-04-29 02:10:00,
2013-04-28 19:15:00,75.6,32.0,30.66,SW,217,5.0,5.0,8,0.00,RA,OVC,0.00,Misterhouse,2013-04-29 02:15:00,
2013-04-28 19:20:00,75.2,32.0,30.66,SSW,194,7.0,7.0,8,0.00,RA,OVC,0.00,Misterhouse,2013-04-29 02:20:00,
2013-04-28 19:25:00,74.8,32.0,30.66,SSW,206,7.0,8.0,8,0.00,RA,OVC,0.00,Misterhouse,2013-04-29 02:25:00,
2013-04-28 19:30:00,74.5,32.0,30.66,West,261,5.0,5.0,8,0.00,RA,OVC,0.00,Misterhouse,2013-04-29 02:30:00,
2013-04-28 19:35:00,74.3,32.0,30.66,WSW,252,4.0,6.0,8,0.00,RA,OVC,0.00,Misterhouse,2013-04-29 02:35:00,
2013-04-28 19:40:00,73.8,32.0,30.66,WSW,257,5.0,5.0,8,0.00,RA,OVC,0.00,Misterhouse,2013-04-29 02:40:00,
2013-04-28 19:45:00,73.6,32.0,30.66,WSW,247,6.0,6.0,8,0.00,RA,OVC,0.00,Misterhouse,2013-04-29 02:45:00,
2013-04-28 19:50:00,73.4,32.0,30.66,WSW,256,6.0,8.0,8,0.00,RA,OVC,0.00,Misterhouse,2013-04-29 02:50:00,
2013-04-28 20:00:00,73.0,32.0,30.69,WSW,237,5.0,8.0,9,0.00,RA,OVC,0.00,Misterhouse,2013-04-29 03:00:00,
2013-04-28 20:05:00,72.9,32.0,30.69,SSW,212,7.0,8.0,9,0.00,RA,OVC,0.00,Misterhouse,2013-04-29 03:05:00,
2013-04-28 20:10:00,72.5,32.0,30.69,SSW,202,7.0,8.0,9,0.00,RA,OVC,0.00,Misterhouse,2013-04-29 03:10:00,
2013-04-28 20:15:00,72.3,32.0,30.69,South,185,7.0,7.0,9,0.00,RA,OVC,0.00,Misterhouse,2013-04-29 03:15:00,
2013-04-28 20:20:00,72.1,32.0,30.69,SSW,201,8.0,8.0,9,0.00,RA,OVC,0.00,Misterhouse,2013-04-29 03:20:00,
2013-04-28 20:25:00,72.5,32.0,30.69,SSW,204,9.0,9.0,9,0.00,RA,OVC,0.00,Misterhouse,2013-04-29 03:25:00,
2013-04-28 20:30:00,72.5,32.0,30.69,SSW,200,6.0,6.0,9,0.00,RA,OVC,0.00,Misterhouse,2013-04-29 03:30:00,
2013-04-28 20:35:00,72.3,32.0,30.69,SW,214,8.0,8.0,9,0.00,RA,OVC,0.00,Misterhouse,2013-04-29 03:35:00,
2013-04-28 20:40:00,72.5,32.0,30.69,South,184,7.0,7.0,9,0.00,RA,OVC,0.00,Misterhouse,2013-04-29 03:40:00,
2013-04-28 20:45:00,72.9,32.0,30.69,SSW,209,9.0,10.0,9,0.00,RA,OVC,0.00,Misterhouse,2013-04-29 03:45:00,
2013-04-28 20:50:00,73.0,32.0,30.69,South,188,8.0,12.0,9,0.00,RA,OVC,0.00,Misterhouse,2013-04-29 03:50:00,
2013-04-28 20:55:00,73.0,32.0,30.69,SW,221,8.0,8.0,9,0.00,RA,OVC,0.00,Misterhouse,2013-04-29 03:55:00,
2013-04-28 21:00:00,73.0,32.0,30.69,South,177,8.0,9.0,9,0.00,RA,OVC,0.00,Misterhouse,2013-04-29 04:00:00,
2013-04-28 21:05:00,72.3,32.0,30.69,SSW,207,7.0,8.0,9,0.00,RA,OVC,0.00,Misterhouse,2013-04-29 04:05:00,
2013-04-28 21:10:00,72.5,32.0,30.69,SSW,200,7.0,8.0,9,0.00,RA,OVC,0.00,Misterhouse,2013-04-29 04:10:00,
2013-04-28 21:15:00,72.3,32.0,30.69,SSW,199,6.0,6.0,9,0.00,RA,OVC,0.00,Misterhouse,2013-04-29 04:15:00,
2013-04-28 21:20:00,72.1,32.0,30.69,SSW,213,6.0,6.0,9,0.00,RA,OVC,0.00,Misterhouse,2013-04-29 04:20:00,
2013-04-28 21:25:00,72.1,32.0,30.69,SW,235,3.0,0.0,9,0.00,RA,OVC,0.00,Misterhouse,2013-04-29 04:25:00,
2013-04-28 21:30:00,71.2,32.0,30.69,West,273,3.0,3.0,9,0.00,RA,OVC,0.00,Misterhouse,2013-04-29 04:30:00,
2013-04-28 21:35:00,70.7,32.0,30.69,South,187,4.0,6.0,9,0.00,RA,OVC,0.00,Misterhouse,2013-04-29 04:35:00,
2013-04-28 21:40:00,71.2,32.0,30.69,SSW,197,6.0,6.0,9,0.00,RA,OVC,0.00,Misterhouse,2013-04-29 04:40:00,
2013-04-28 21:45:00,71.4,32.0,30.69,SSW,212,4.0,5.0,9,0.00,RA,OVC,0.00,Misterhouse,2013-04-29 04:45:00,
2013-04-28 21:50:00,71.4,32.0,30.69,SW,224,5.0,8.0,9,0.00,RA,OVC,0.00,Misterhouse,2013-04-29 04:50:00,
2013-04-28 21:55:00,71.1,32.0,30.69,SSW,209,5.0,7.0,9,0.00,RA,OVC,0.00,Misterhouse,2013-04-29 04:55:00,
2013-04-28 22:00:00,71.1,32.0,30.69,SSW,198,6.0,6.0,9,0.00,RA,OVC,0.00,Misterhouse,2013-04-29 05:00:00,
2013-04-28 22:05:00,71.1,32.0,30.69,SW,234,8.0,9.0,9,0.00,RA,OVC,0.00,Misterhouse,2013-04-29 05:05:00,
2013-04-28 22:10:00,71.1,32.0,30.69,SSW,192,6.0,8.0,9,0.00,RA,OVC,0.00,Misterhouse,2013-04-29 05:10:00,
2013-04-28 22:15:00,72.0,32.0,30.69,West,262,9.0,9.0,9,0.00,RA,OVC,0.00,Misterhouse,2013-04-29 05:15:00,
2013-04-28 22:20:00,72.0,32.0,30.69,SSE,163,5.0,6.0,9,0.00,RA,OVC,0.00,Misterhouse,2013-04-29 05:20:00,
2013-04-28 22:25:00,71.6,32.0,30.69,SW,218,4.0,4.0,9,0.00,RA,OVC,0.00,Misterhouse,2013-04-29 05:25:00,
2013-04-28 22:30:00,70.9,32.0,30.69,SSW,198,4.0,6.0,9,0.00,RA,OVC,0.00,Misterhouse,2013-04-29 05:30:00,
2013-04-28 22:35:00,70.9,32.0,30.69,WSW,257,4.0,4.0,9,0.00,RA,OVC,0.00,Misterhouse,2013-04-29 05:35:00,
2013-04-28 22:40:00,71.1,32.0,30.69,SSW,212,4.0,4.0,9,0.00,RA,OVC,0.00,Misterhouse,2013-04-29 05:40:00,
2013-04-28 22:45:00,70.7,32.0,30.69,West,280,5.0,5.0,9,0.00,RA,OVC,0.00,Misterhouse,2013-04-29 05:45:00,
2013-04-28 22:50:00,70.5,32.0,30.69,West,273,6.0,6.0,9,0.00,RA,OVC,0.00,Misterhouse,2013-04-29 05:50:00,
2013-04-28 22:55:00,70.7,32.0,30.69,WSW,247,4.0,4.0,9,0.00,RA,OVC,0.00,Misterhouse,2013-04-29 05:55:00,
2013-04-28 23:00:00,70.5,32.0,30.69,SW,215,4.0,4.0,9,0.00,RA,OVC,0.00,Misterhouse,2013-04-29 06:00:00,
2013-04-28 23:05:00,71.2,32.0,30.69,WSW,248,4.0,4.0,9,0.00,RA,OVC,0.00,Misterhouse,2013-04-29 06:05:00,
2013-04-28 23:10:00,70.9,32.0,30.69,West,268,6.0,6.0,9,0.00,RA,OVC,0.00,Misterhouse,2013-04-29 06:10:00,
2013-04-28 23:15:00,71.2,32.0,30.69,SW,231,6.0,8.0,9,0.00,RA,OVC,0.00,Misterhouse,2013-04-29 06:15:00,
2013-04-28 23:20:00,71.8,32.0,30.69,WSW,247,5.0,5.0,9,0.00,RA,OVC,0.00,Misterhouse,2013-04-29 06:20:00,
2013-04-28 23:25:00,73.0,32.0,30.69,SW,231,12.0,12.0,9,0.00,RA,OVC,0.00,Misterhouse,2013-04-29 06:25:00,
2013-04-28 23:30:00,73.2,32.0,30.69,WSW,247,9.0,9.0,9,0.00,RA,OVC,0.00,Misterhouse,2013-04-29 06:30:00,
2013-04-28 23:35:00,72.5,32.0,30.69,WSW,258,8.0,8.0,9,0.00,RA,OVC,0.00,Misterhouse,2013-04-29 06:35:00,
2013-04-28 23:40:00,72.7,32.0,30.69,SSW,201,7.0,11.0,9,0.00,RA,OVC,0.00,Misterhouse,2013-04-29 06:40:00,
2013-04-28 23:45:00,73.0,32.0,30.66,WSW,247,5.0,5.0,9,0.00,RA,OVC,0.00,Misterhouse,2013-04-29 06:45:00,
2013-04-28 23:50:00,72.7,32.0,30.66,SW,235,6.0,9.0,9,0.00,RA,OVC,0.00,Misterhouse,2013-04-29 06:50:00,
2013-04-28 23:55:00,72.3,32.0,30.69,West,261,7.0,10.0,9,0.00,RA,OVC,0.00,Misterhouse,2013-04-29 06:55:00,